Wind_Speed
19 16 14 11 9 11 13 15 17 16 20 21 25 29 31 29 26 25 22 23 22 20 22 22 21 22 23 24 25 26 27 28 27 26 27 28 26 25 25 25 27 23 23 27
18 17 15 13 15 18 18 19 20 22 22 28 31 32 31 29 27 27 27 24 23 23 25 24 24 24 24 24 26 27 29 29 28 26 25 24 23 23 23 24 25 27 28 26
19 18 16 15 18 21 22 21 23 23 27 31 33 33 32 32 28 29 27 28 28 27 26 26 27 28 28 28 29 31 32 31 28 26 25 26 26 29 29 30 29 27 26 27
21 21 20 23 23 24 26 26 27 29 32 33 33 30 33 27 30 32 30 32 33 33 31 30 31 32 33 34 34 34 31 30 29 29 29 30 30 30 30 28 28 29 31 29
20 20 23 24 24 26 28 30 31 32 31 33 33 33 32 35 37 36 35 34 33 34 34 34 36 38 38 35 33 33 31 29 30 31 31 30 29 29 29 27 28 27 28 29
24 23 24 24 24 26 29 30 31 32 34 35 36 37 39 39 40 41 38 39 40 40 38 38 40 40 37 32 32 31 30 29 29 29 30 29 30 31 33 33 34 33 32 31
23 24 24 25 28 30 33 36 37 38 39 41 41 39 37 46 45 41 41 41 41 41 41 44 43 39 35 34 34 34 34 34 35 34 32 32 32 34 35 36 36 38 36 34
26 26 28 29 29 31 36 39 40 42 44 47 46 44 45 47 49 45 41 42 45 47 47 45 39 36 35 35 36 36 36 39 39 38 37 36 37 39 40 40 40 39 40 40
28 30 31 32 33 36 39 40 43 45 47 49 48 50 51 49 45 46 48 49 48 47 45 40 36 33 35 36 37 37 36 37 39 41 40 39 40 42 43 43 43 43 44 42
32 33 35 37 39 40 41 42 43 44 46 48 49 51 51 50 49 51 51 52 50 49 46 42 38 37 37 38 39 39 39 41 43 44 44 44 45 45 46 46 47 48 47 48
35 37 40 41 41 41 43 45 46 47 47 48 48 48 48 51 53 52 52 53 52 51 49 47 46 45 43 43 43 43 44 45 47 49 49 48 48 48 48 48 49 50 50 49
41 42 42 43 44 46 47 48 48 50 52 49 48 52 52 52 50 49 49 47 47 47 47 47 48 48 47 45 45 44 45 47 47 49 50 51 50 50 51 51 51 52 53 53
43 44 45 46 49 51 52 51 53 53 50 48 51 54 53 50 49 49 45 44 43 43 45 46 47 47 47 47 46 47 48 47 47 48 50 52 53 53 53 53 54 54 55 56
46 47 49 50 51 52 53 53 52 51 52 53 55 54 54 54 52 48 47 45 45 45 46 46 46 46 48 48 49 50 51 52 54 55 55 56 59 60 60 61 60 61 61 60
51 52 52 53 53 54 55 54 50 52 53 55 54 55 57 56 51 47 44 45 46 46 46 48 49 50 51 52 54 55 57 58 58 59 61 63 68 71 70 71 70 68 68 67
52 53 52 55 52 53 56 54 52 56 57 56 56 58 58 55 50 46 44 44 45 46 49 51 53 56 58 59 60 60 62 64 66 67 70 72 74 76 74 71 70 66 64 62
52 53 52 54 54 52 53 57 57 57 57 59 60 59 56 52 49 47 46 47 47 52 54 57 59 62 63 64 65 67 70 74 78 78 77 74 69 68 67 64 60 58 59 60
53 52 52 52 53 54 54 57 60 63 64 63 61 58 54 48 47 49 49 50 53 57 61 62 62 63 66 70 74 76 80 79 73 72 70 70 67 67 65 62 62 61 58 54
52 51 50 51 54 56 57 56 62 63 64 59 57 55 51 48 50 54 52 56 59 61 63 64 66 70 74 78 80 79 76 76 73 70 67 66 67 67 69 65 65 65 62 58
51 51 52 54 54 58 59 60 61 61 60 53 50 50 49 49 51 56 59 61 62 63 66 70 75 78 79 78 75 75 75 75 72 66 70 74 78 75 70 71 68 58 60 64
54 55 57 59 59 59 56 59 57 56 51 51 50 51 51 52 55 57 60 62 64 67 71 76 77 76 75 74 72 75 74 73 72 75 77 82 79 72 63 59 55 48 47 40
57 59 61 60 61 59 58 56 55 52 51 52 51 52 53 57 57 58 61 64 68 71 76 76 73 73 73 74 74 74 73 72 75 80 83 75 63 57 48 53 51 49 42 37
58 59 61 61 62 60 57 57 54 53 53 52 54 57 58 59 61 62 66 69 74 76 78 75 72 70 74 74 72 72 81 78 77 71 62 58 47 24 59 54 40 34 38 32
57 58 61 62 64 60 59 57 54 55 54 56 59 60 61 63 65 68 71 74 77 79 76 73 71 75 73 72 76 81 72 64 52 46 48 48 32 29 42 54 35 29 34 28
61 63 63 64 61 59 59 56 56 57 59 61 62 63 66 67 69 71 76 78 79 74 70 69 72 72 70 73 75 67 51 36 39 36 39 39 26 28 31 37 28 24 25 23
65 65 63 60 57 57 58 59 60 62 64 65 66 68 70 71 73 78 79 79 71 70 69 72 75 71 72 73 62 48 38 32 34 36 29 30 28 29 36 39 22 21 19 22
Wind_Direction
197 202 222 275 308 306 304 301 306 311 318 329 332 335 335 337 334 331 329 324 316 317 326 317 310 312 313 310 307 306 305 304 298 291 287 285 284 286 282 275 275 282 272 267
206 216 249 270 296 302 306 308 303 301 311 323 326 330 331 328 328 327 328 332 323 317 316 314 309 309 309 306 307 307 304 299 292 287 285 285 291 294 290 281 275 278 276 272
232 240 251 271 286 301 305 305 306 308 318 324 325 324 326 323 323 325 329 329 325 321 316 314 311 310 310 308 308 308 308 304 301 300 299 297 299 299 297 293 290 286 276 268
242 249 262 283 295 303 305 303 309 317 319 320 319 321 323 323 325 325 323 326 331 328 321 318 314 311 310 310 311 309 306 306 305 300 297 294 293 293 291 288 281 277 279 279
245 254 266 281 292 298 299 304 311 314 314 315 315 317 317 314 316 317 317 317 321 323 316 314 313 312 311 312 307 307 303 300 295 290 290 289 291 294 293 291 286 281 275 274
250 260 271 278 289 299 304 307 311 311 313 317 320 318 318 320 320 318 316 315 312 314 314 314 314 314 312 308 302 297 295 295 292 294 294 294 297 294 292 291 290 286 283 281
253 268 279 282 289 297 302 304 307 310 313 316 318 318 317 317 318 315 313 315 316 316 315 316 318 316 312 308 303 305 306 306 300 296 294 294 294 292 290 286 285 283 282 280
264 269 274 282 290 297 303 307 310 313 316 318 317 316 317 317 315 316 316 315 315 315 316 318 318 313 311 309 306 304 300 297 297 296 297 297 298 296 294 293 290 285 282 280
269 274 282 288 294 298 304 308 312 315 317 316 315 314 316 315 315 314 314 312 313 314 316 314 311 307 304 300 297 296 296 298 297 295 295 296 296 294 292 291 290 287 286 284
274 279 284 288 294 298 302 306 309 312 313 313 312 314 314 314 313 311 311 312 313 311 310 308 303 299 296 297 298 299 299 297 296 296 294 294 292 291 291 290 289 287 284 285
281 283 285 291 297 301 301 303 304 307 309 310 308 309 310 311 313 314 313 312 312 310 310 308 306 305 305 305 302 299 297 296 295 294 294 293 292 292 291 289 288 287 287 285
280 284 286 291 294 296 297 298 303 306 308 310 308 310 311 314 314 313 312 310 307 305 303 301 302 302 301 300 298 296 294 292 292 291 291 291 292 291 290 289 288 287 287 285
278 281 286 289 292 295 297 302 304 307 308 306 308 310 312 313 312 310 306 302 296 292 293 294 296 297 298 297 297 294 293 291 289 287 288 288 288 287 286 284 284 282 281 281
277 283 286 290 293 295 298 302 305 306 306 308 309 309 311 312 309 306 302 299 297 296 296 298 298 298 299 298 294 291 289 287 285 284 284 286 286 284 284 283 281 280 279 279
281 284 288 289 292 296 297 298 302 302 305 306 307 306 308 308 307 303 300 299 300 300 299 297 296 296 294 292 291 290 289 287 286 285 285 285 286 286 285 283 281 280 280 277
282 285 287 289 292 295 297 299 301 302 304 305 304 304 305 304 302 298 295 294 295 296 295 295 295 296 296 296 294 292 291 289 287 286 286 288 287 286 285 284 283 281 281 279
281 284 287 289 292 294 295 299 301 299 300 301 302 302 301 300 300 298 297 297 297 297 297 298 298 299 298 297 295 294 294 294 294 294 293 293 291 290 288 285 281 280 280 279
281 284 286 289 293 296 296 297 297 298 300 301 301 301 301 299 297 294 297 298 300 300 299 300 301 300 299 298 298 297 297 298 298 297 297 295 293 291 287 283 281 279 277 276
282 283 287 289 290 290 290 294 294 296 298 300 299 300 299 300 298 299 299 297 298 300 300 301 301 300 300 300 300 300 299 299 298 298 297 296 297 294 291 284 281 277 274 269
279 283 285 284 285 287 292 292 294 295 297 299 297 296 295 294 293 292 293 295 299 300 301 301 302 302 301 302 302 301 301 300 299 300 297 299 300 296 290 286 288 282 272 263
282 282 282 283 285 287 293 293 294 294 294 293 291 290 290 289 290 293 296 299 302 303 304 304 303 303 302 303 302 302 301 298 299 299 298 299 298 296 292 286 280 275 275 270
282 285 287 289 290 293 293 292 292 292 288 286 287 288 290 294 297 300 302 303 303 303 306 304 303 303 304 304 304 303 300 298 298 297 298 296 297 300 288 285 277 265 262 266
284 287 289 292 292 295 293 292 292 287 289 291 293 295 297 299 301 301 302 303 304 303 304 304 305 307 307 306 305 304 303 300 298 296 294 296 299 297 304 298 283 252 247 259
283 286 288 289 292 293 290 291 289 291 292 293 295 296 297 298 301 302 303 301 303 304 305 307 307 309 309 308 308 306 304 301 299 297 299 293 277 249 246 269 276 236 240 249
283 283 284 287 289 287 288 288 289 291 293 294 295 295 297 299 301 302 303 303 305 305 305 306 308 310 310 308 310 307 305 304 306 304 300 294 270 254 257 284 253 234 246 223
280 282 283 283 284 285 286 289 291 292 294 296 296 297 299 300 301 303 304 306 306 306 306 308 310 310 311 310 307 302 299 302 317 313 304 291 268 258 260 282 242 234 231 212
Height
11043 11044 11045 11046 11045 11044 11044 11043 11043 11041 11040 11038 11035 11032 11030 11028 11027 11025 11022 11019 11017 11014 11011 11009 11006 11003 11000 10998 10995 10993 10990 10987 10986 10983 10980 10979 10978 10976 10974 10973 10972 10971 10970 10969
11042 11043 11044 11044 11044 11043 11042 11041 11040 11039 11037 11035 11031 11029 11026 11024 11022 11021 11018 11015 11012 11009 11007 11004 11002 10999 10996 10993 10990 10987 10984 10981 10979 10976 10973 10972 10970 10969 10968 10967 10966 10965 10963 10963
11040 11042 11042 11043 11041 11040 11039 11038 11036 11034 11032 11030 11027 11025 11022 11019 11017 11014 11012 11010 11008 11005 11002 10999 10996 10993 10990 10987 10983 10979 10976 10973 10971 10969 10966 10965 10963 10961 10960 10959 10958 10957 10956 10956
11039 11040 11040 11038 11038 11037 11036 11033 11031 11029 11027 11025 11022 11021 11018 11014 11011 11009 11006 11003 10999 10997 10994 10991 10988 10985 10982 10979 10974 10970 10968 10965 10963 10961 10959 10958 10956 10955 10953 10952 10951 10950 10948 10947
11037 11037 11036 11036 11035 11034 11031 11029 11028 11025 11023 11021 11018 11016 11015 11012 11007 11004 11001 10999 10996 10992 10988 10985 10981 10978 10974 10969 10966 10962 10959 10958 10956 10953 10952 10949 10948 10946 10944 10944 10942 10940 10940 10939
11032 11033 11033 11033 11033 11030 11027 11025 11023 11021 11018 11016 11014 11009 11007 11006 11002 10996 10993 10990 10987 10984 10981 10977 10974 10969 10965 10961 10958 10956 10954 10951 10949 10946 10943 10941 10939 10937 10935 10935 10932 10931 10930 10929
11029 11030 11030 11029 11028 11025 11022 11019 11017 11015 11011 11008 11007 11005 11004 10996 10995 10991 10985 10981 10978 10974 10971 10968 10963 10959 10955 10951 10948 10945 10942 10941 10939 10937 10935 10932 10930 10928 10926 10924 10923 10920 10919 10918
11025 11026 11026 11025 11023 11021 11016 11013 11010 11005 11002 10998 10996 10995 10995 10988 10981 10979 10977 10972 10969 10964 10960 10957 10954 10949 10945 10942 10939 10937 10935 10932 10928 10925 10923 10921 10919 10916 10914 10912 10911 10909 10908 10907
11020 11021 11020 11019 11017 11015 11012 11008 11003 10997 10993 10988 10984 10982 10980 10976 10973 10968 10965 10962 10959 10954 10950 10947 10944 10942 10938 10935 10932 10929 10926 10922 10918 10916 10913 10912 10909 10906 10904 10901 10899 10897 10895 10894
11016 11016 11015 11013 11012 11010 11007 11003 10999 10995 10990 10984 10978 10975 10968 10964 10963 10959 10954 10949 10947 10943 10940 10937 10935 10932 10930 10927 10922 10918 10915 10912 10908 10904 10901 10899 10896 10894 10891 10888 10886 10884 10883 10881
11011 11010 11008 11006 11004 11002 10999 10997 10993 10989 10984 10979 10971 10967 10963 10957 10951 10947 10942 10937 10932 10928 10925 10922 10919 10918 10916 10913 10910 10908 10905 10901 10896 10891 10888 10886 10883 10881 10878 10876 10873 10870 10868 10867
11005 11003 11000 10998 10996 10994 10992 10990 10985 10981 10976 10970 10962 10955 10954 10948 10943 10936 10929 10925 10920 10916 10914 10911 10910 10907 10905 10903 10900 10896 10892 10888 10883 10879 10875 10872 10870 10867 10864 10861 10859 10856 10854 10852
10996 10994 10992 10990 10988 10984 10982 10980 10976 10971 10966 10961 10953 10946 10943 10938 10933 10927 10923 10918 10914 10910 10907 10904 10901 10898 10894 10891 10888 10884 10880 10876 10872 10867 10862 10858 10855 10852 10849 10847 10844 10841 10838 10836
10986 10985 10984 10983 10980 10976 10972 10969 10965 10959 10954 10948 10943 10937 10932 10927 10923 10918 10914 10911 10907 10902 10898 10894 10890 10887 10883 10879 10875 10870 10866 10862 10858 10853 10849 10844 10838 10835 10832 10829 10827 10823 10820 10818
10976 10975 10974 10972 10970 10965 10961 10960 10957 10949 10945 10940 10935 10928 10923 10919 10915 10909 10904 10898 10895 10891 10887 10883 10878 10874 10870 10865 10860 10856 10852 10847 10842 10837 10832 10827 10820 10814 10811 10807 10805 10803 10800 10798
10965 10964 10964 10958 10959 10955 10946 10946 10943 10937 10933 10930 10924 10919 10914 10909 10905 10900 10896 10892 10886 10882 10876 10870 10866 10861 10855 10850 10844 10839 10834 10827 10822 10817 10812 10807 10801 10793 10788 10783 10782 10780 10778 10775
10956 10955 10952 10947 10946 10944 10937 10931 10930 10926 10923 10919 10914 10910 10904 10898 10892 10888 10884 10878 10875 10868 10863 10858 10852 10846 10839 10833 10826 10820 10814 10806 10799 10793 10787 10781 10775 10770 10766 10762 10759 10759 10757 10755
10945 10944 10942 10938 10933 10929 10928 10922 10915 10909 10909 10904 10900 10895 10891 10887 10881 10874 10872 10866 10860 10855 10848 10843 10837 10830 10822 10815 10807 10800 10791 10784 10777 10770 10765 10757 10752 10747 10743 10740 10738 10737 10736 10736
10933 10932 10930 10927 10923 10920 10914 10914 10904 10897 10894 10893 10884 10880 10876 10872 10866 10858 10858 10851 10847 10842 10834 10827 10820 10812 10803 10794 10786 10778 10767 10761 10753 10747 10743 10734 10730 10724 10719 10717 10714 10713 10713 10715
10922 10921 10919 10916 10913 10908 10905 10898 10893 10887 10879 10878 10873 10867 10864 10860 10856 10849 10845 10840 10834 10827 10819 10811 10802 10793 10783 10773 10765 10756 10746 10738 10730 10726 10719 10712 10706 10699 10692 10690 10688 10684 10686 10691
10910 10908 10905 10903 10902 10896 10895 10883 10880 10875 10871 10864 10860 10856 10853 10849 10844 10840 10832 10825 10818 10810 10802 10793 10782 10772 10762 10754 10746 10735 10725 10715 10710 10702 10694 10688 10680 10674 10669 10667 10667 10669 10669 10670
10896 10893 10887 10886 10881 10881 10878 10872 10867 10864 10858 10854 10850 10845 10841 10835 10830 10825 10817 10809 10800 10792 10783 10774 10765 10755 10744 10735 10727 10715 10705 10698 10690 10680 10671 10664 10659 10656 10650 10644 10644 10650 10655 10657
10881 10877 10873 10869 10865 10865 10860 10856 10855 10849 10845 10840 10835 10829 10824 10819 10813 10807 10801 10792 10782 10772 10763 10754 10747 10738 10726 10714 10706 10696 10681 10675 10666 10657 10650 10645 10645 10644 10628 10632 10629 10632 10641 10646
10870 10864 10861 10855 10852 10849 10843 10842 10838 10833 10829 10825 10821 10815 10809 10804 10798 10790 10782 10773 10764 10754 10745 10736 10727 10717 10707 10695 10684 10672 10662 10652 10644 10640 10635 10628 10629 10630 10625 10623 10623 10624 10629 10635
10854 10851 10847 10843 10839 10834 10828 10827 10822 10818 10815 10810 10805 10800 10793 10787 10781 10773 10763 10752 10744 10736 10728 10719 10710 10701 10690 10679 10666 10653 10646 10639 10634 10629 10623 10617 10617 10622 10622 10621 10617 10620 10624 10627
10840 10835 10833 10828 10827 10821 10815 10811 10808 10804 10799 10793 10787 10781 10775 10769 10761 10752 10742 10732 10725 10718 10709 10700 10690 10682 10673 10661 10650 10642 10636 10633 10628 10622 10615 10612 10612 10614 10615 10615 10615 10617 10620 10621